OMD185 KEWR-KEYW

Flight info

Callsign OMD185
Flight time 2h 54m
Altitude 38000
Route ELVAE NECCK WHITE Q409 CRPLR EARZZ Q131 WAALT Y289 BAHAA HIBAC EBAYY FNTSY1
Aircraft A319/M-SDE3FGHIRWY/LB1

Departure

Time 2026-05-08 02:46
Airport Newark Liberty International Airport (KEWR)

Arrival

Time 2026-05-08 05:40
Airport Key West International Airport (KEYW)
Time Latitude Longitude Altitude Speed Heading
2026-05-08 02:23 40.68823 -74.17761 23 ft 0 kts 134°
2026-05-08 02:39 40.68834 -74.17776 22 ft 4 kts 110°
2026-05-08 02:39 40.68832 -74.17805 22 ft 4 kts 52°
2026-05-08 02:39 40.68816 -74.17828 24 ft 4 kts 33°
2026-05-08 02:40 40.68792 -74.17841 23 ft 4 kts
2026-05-08 02:40 40.68768 -74.17845 24 ft 4 kts
2026-05-08 02:40 40.68742 -74.17848 24 ft 4 kts
2026-05-08 02:40 40.68716 -74.17846 23 ft 4 kts 339°
2026-05-08 02:41 40.68698 -74.17834 23 ft 4 kts 351°
2026-05-08 02:41 40.68684 -74.17838 25 ft 4 kts 84°
2026-05-08 02:41 40.68688 -74.17862 22 ft 4 kts 110°
2026-05-08 02:41 40.68690 -74.17870 22 ft 0 kts 110°
2026-05-08 02:44 40.68676 -74.17820 24 ft 15 kts 109°
2026-05-08 02:44 40.68613 -74.17609 22 ft 32 kts 126°
2026-05-08 02:44 40.68422 -74.17658 23 ft 32 kts 206°
2026-05-08 02:44 40.68211 -74.17800 22 ft 36 kts 206°
2026-05-08 02:45 40.67973 -74.17950 23 ft 41 kts 206°
2026-05-08 02:45 40.67718 -74.18113 24 ft 37 kts 206°
2026-05-08 02:45 40.67589 -74.18020 23 ft 24 kts 129°
2026-05-08 02:45 40.67568 -74.17918 23 ft 1 kts 38°
2026-05-08 02:46 40.67591 -74.17907 23 ft 2 kts 18°
2026-05-08 02:46 40.67963 -74.17676 20 ft 114 kts 26°
2026-05-08 02:46 40.68874 -74.17085 520 ft 147 kts 26°
2026-05-08 02:46 40.69725 -74.16440 1642 ft 146 kts 41°
2026-05-08 02:47 40.70468 -74.15395 2445 ft 168 kts 45°
2026-05-08 02:47 40.71348 -74.14248 3047 ft 190 kts 43°
2026-05-08 02:47 40.72362 -74.12967 3671 ft 214 kts 43°
2026-05-08 02:47 40.73504 -74.11536 4384 ft 239 kts 42°
2026-05-08 02:48 40.74789 -74.09962 5128 ft 265 kts 38°
2026-05-08 02:48 40.76451 -74.08817 6095 ft 276 kts 12°
2026-05-08 02:48 40.78332 -74.08641 7211 ft 276 kts 348°
2026-05-08 02:48 40.80136 -74.09479 8469 ft 270 kts 324°
2026-05-08 02:49 40.81480 -74.11090 9752 ft 263 kts 303°
2026-05-08 02:49 40.82264 -74.13259 10813 ft 264 kts 282°
2026-05-08 02:49 40.82382 -74.15644 12032 ft 261 kts 263°
2026-05-08 02:49 40.81798 -74.17912 13205 ft 266 kts 242°
2026-05-08 02:50 40.80488 -74.19676 14271 ft 278 kts 218°
2026-05-08 02:50 40.78632 -74.20582 15210 ft 295 kts 201°
2026-05-08 02:50 40.76569 -74.21223 15714 ft 312 kts 200°
2026-05-08 02:50 40.74438 -74.21844 16573 ft 316 kts 200°
2026-05-08 02:51 40.72285 -74.22456 17554 ft 316 kts 200°
2026-05-08 02:51 40.70136 -74.23066 18510 ft 316 kts 200°
2026-05-08 02:51 40.67982 -74.23687 19279 ft 318 kts 201°
2026-05-08 02:51 40.65810 -74.24327 20016 ft 322 kts 201°
2026-05-08 02:52 40.63613 -74.24982 20742 ft 326 kts 202°
2026-05-08 02:52 40.61393 -74.25645 21464 ft 330 kts 202°
2026-05-08 02:52 40.59140 -74.26318 22168 ft 333 kts 203°
2026-05-08 02:52 40.56994 -74.27354 22853 ft 328 kts 213°
2026-05-08 02:53 40.54907 -74.28594 23557 ft 331 kts 213°
2026-05-08 02:53 40.52796 -74.29849 24166 ft 334 kts 213°
2026-05-08 02:53 40.50669 -74.31118 24761 ft 337 kts 213°
2026-05-08 02:53 40.48553 -74.32379 25298 ft 340 kts 213°
2026-05-08 02:54 40.46392 -74.33666 25868 ft 344 kts 214°
2026-05-08 02:54 40.44198 -74.34971 26440 ft 347 kts 214°
2026-05-08 02:54 40.41991 -74.36277 27039 ft 350 kts 214°
2026-05-08 02:54 40.39755 -74.37597 27592 ft 353 kts 214°
2026-05-08 02:55 40.37510 -74.38921 28131 ft 356 kts 214°
2026-05-08 02:55 40.32944 -74.41622 29232 ft 363 kts 214°
2026-05-08 02:55 40.30629 -74.42989 29785 ft 366 kts 214°
2026-05-08 02:56 40.28294 -74.44366 30215 ft 369 kts 215°
2026-05-08 02:56 40.25946 -74.45749 30687 ft 371 kts 215°
2026-05-08 02:56 40.23580 -74.47140 31125 ft 374 kts 215°
2026-05-08 02:56 40.21194 -74.48546 31550 ft 377 kts 215°
2026-05-08 02:57 40.18793 -74.49958 31960 ft 380 kts 215°
2026-05-08 02:57 40.16370 -74.51387 32366 ft 383 kts 215°
2026-05-08 02:57 40.13966 -74.52797 32876 ft 383 kts 215°
2026-05-08 02:57 40.11501 -74.54236 33470 ft 382 kts 215°
2026-05-08 02:58 40.09108 -74.55632 34021 ft 381 kts 215°
2026-05-08 02:58 40.06685 -74.57044 34481 ft 380 kts 215°
2026-05-08 02:58 40.04272 -74.58452 34941 ft 380 kts 215°
2026-05-08 02:58 40.01861 -74.59862 35381 ft 380 kts 215°
2026-05-08 02:59 39.99448 -74.61273 35807 ft 380 kts 215°
2026-05-08 02:59 39.97038 -74.62685 36229 ft 380 kts 215°
2026-05-08 02:59 39.94629 -74.64097 36652 ft 380 kts 214°
2026-05-08 02:59 39.92218 -74.65506 37059 ft 380 kts 214°
2026-05-08 03:00 39.89805 -74.66917 37458 ft 380 kts 214°
2026-05-08 03:00 39.87391 -74.68328 37781 ft 381 kts 214°
2026-05-08 03:00 39.84955 -74.69752 37890 ft 387 kts 214°
2026-05-08 03:01 39.79931 -74.72690 37907 ft 403 kts 214°
2026-05-08 03:01 39.74768 -74.75681 37904 ft 408 kts 214°
2026-05-08 03:02 39.69572 -74.78669 37903 ft 409 kts 213°
2026-05-08 03:02 39.64377 -74.81663 37910 ft 409 kts 214°
2026-05-08 03:03 39.59216 -74.84646 37909 ft 409 kts 214°
2026-05-08 03:03 39.54023 -74.87644 37915 ft 409 kts 214°
2026-05-08 03:04 39.48823 -74.90639 37922 ft 409 kts 214°
2026-05-08 03:04 39.43618 -74.93634 37888 ft 410 kts 214°
2026-05-08 03:05 39.38400 -74.96624 37906 ft 410 kts 214°
2026-05-08 03:05 39.34058 -74.99108 37915 ft 411 kts 214°
2026-05-08 03:06 39.27946 -75.02601 37860 ft 411 kts 214°
2026-05-08 03:06 39.23591 -75.05088 37917 ft 412 kts 214°
2026-05-08 03:07 39.17489 -75.08562 37954 ft 413 kts 214°
2026-05-08 03:07 39.12237 -75.11549 37952 ft 412 kts 214°
2026-05-08 03:08 39.07840 -75.14049 37939 ft 412 kts 214°
2026-05-08 03:08 39.02620 -75.17009 37920 ft 413 kts 214°
2026-05-08 03:09 38.97364 -75.19983 37931 ft 413 kts 214°
2026-05-08 03:09 38.92111 -75.22958 37946 ft 413 kts 214°
2026-05-08 03:10 38.86857 -75.25926 37955 ft 413 kts 214°
2026-05-08 03:10 38.81600 -75.28888 37942 ft 414 kts 214°
2026-05-08 03:11 38.76328 -75.31852 37959 ft 414 kts 214°
2026-05-08 03:11 38.71052 -75.34807 37962 ft 414 kts 214°
2026-05-08 03:12 38.65780 -75.37771 37953 ft 414 kts 214°
2026-05-08 03:12 38.60510 -75.40727 37938 ft 414 kts 214°
2026-05-08 03:13 38.55238 -75.43671 37983 ft 413 kts 214°
2026-05-08 03:13 38.49967 -75.46609 37968 ft 413 kts 214°
2026-05-08 03:14 38.44695 -75.49546 37965 ft 413 kts 214°
2026-05-08 03:14 38.39451 -75.52473 37928 ft 411 kts 215°
2026-05-08 03:15 38.34206 -75.55376 37948 ft 411 kts 215°
2026-05-08 03:15 38.29004 -75.58257 37957 ft 410 kts 215°
2026-05-08 03:16 38.23774 -75.61150 37959 ft 410 kts 215°
2026-05-08 03:16 38.18547 -75.64038 37943 ft 409 kts 216°
2026-05-08 03:17 38.13340 -75.66914 37964 ft 408 kts 216°
2026-05-08 03:17 38.08146 -75.69792 37967 ft 407 kts 216°
2026-05-08 03:18 38.02953 -75.72647 37967 ft 407 kts 216°
2026-05-08 03:18 37.97773 -75.75480 37942 ft 404 kts 217°
2026-05-08 03:19 37.92617 -75.78300 37963 ft 403 kts 217°
2026-05-08 03:19 37.87473 -75.81117 37982 ft 403 kts 217°
2026-05-08 03:20 37.82357 -75.83914 37975 ft 403 kts 217°
2026-05-08 03:20 37.77217 -75.86722 37922 ft 402 kts 217°
2026-05-08 03:21 37.72080 -75.89528 37946 ft 401 kts 217°
2026-05-08 03:21 37.66956 -75.92325 37957 ft 401 kts 217°
2026-05-08 03:22 37.61833 -75.95112 37977 ft 401 kts 217°
2026-05-08 03:22 37.56708 -75.97887 37979 ft 401 kts 217°
2026-05-08 03:23 37.51802 -76.00539 37981 ft 400 kts 217°
2026-05-08 03:23 37.46682 -76.03316 37982 ft 400 kts 217°
2026-05-08 03:24 37.41571 -76.06092 37975 ft 400 kts 217°
2026-05-08 03:24 37.36452 -76.08856 37898 ft 400 kts 217°
2026-05-08 03:25 37.31339 -76.11601 37979 ft 400 kts 217°
2026-05-08 03:25 37.26225 -76.14350 37989 ft 399 kts 217°
2026-05-08 03:26 37.21121 -76.17092 38001 ft 399 kts 218°
2026-05-08 03:26 37.16019 -76.19835 37988 ft 398 kts 218°
2026-05-08 03:27 37.10961 -76.22539 37934 ft 397 kts 218°
2026-05-08 03:27 37.05878 -76.25254 37946 ft 397 kts 218°
2026-05-08 03:28 37.00792 -76.27966 37964 ft 397 kts 218°
2026-05-08 03:28 36.95711 -76.30674 37968 ft 397 kts 218°
2026-05-08 03:29 36.90632 -76.33379 37934 ft 396 kts 218°
2026-05-08 03:29 36.85543 -76.36092 37974 ft 398 kts 218°
2026-05-08 03:30 36.77905 -76.40147 37987 ft 397 kts 218°
2026-05-08 03:31 36.67730 -76.45525 37953 ft 397 kts 218°
2026-05-08 03:32 36.60089 -76.49562 37983 ft 397 kts 218°
2026-05-08 03:32 36.55035 -76.52229 37996 ft 397 kts 218°
2026-05-08 03:33 36.49948 -76.54905 37988 ft 397 kts 218°
2026-05-08 03:33 36.44864 -76.57577 37944 ft 397 kts 218°
2026-05-08 03:34 36.39765 -76.60255 37962 ft 398 kts 218°
2026-05-08 03:34 36.34664 -76.62926 37969 ft 398 kts 218°
2026-05-08 03:35 36.29564 -76.65596 37978 ft 398 kts 218°
2026-05-08 03:35 36.24463 -76.68254 37977 ft 397 kts 218°
2026-05-08 03:36 36.19361 -76.70920 37960 ft 399 kts 218°
2026-05-08 03:36 36.14249 -76.73588 37968 ft 399 kts 218°
2026-05-08 03:37 36.09137 -76.76255 37969 ft 399 kts 218°
2026-05-08 03:37 36.04023 -76.78914 37973 ft 399 kts 218°
2026-05-08 03:38 35.98899 -76.81570 37964 ft 401 kts 218°
2026-05-08 03:38 35.93764 -76.84232 37975 ft 403 kts 217°
2026-05-08 03:39 35.88608 -76.86998 38003 ft 398 kts 220°
2026-05-08 03:39 35.83726 -76.90013 37997 ft 393 kts 222°
2026-05-08 03:40 35.78872 -76.93114 37996 ft 393 kts 221°
2026-05-08 03:40 35.73996 -76.96164 37953 ft 394 kts 221°
2026-05-08 03:41 35.69073 -76.99192 37967 ft 396 kts 221°
2026-05-08 03:41 35.64133 -77.02212 37976 ft 397 kts 221°
2026-05-08 03:42 35.59185 -77.05235 37982 ft 397 kts 221°
2026-05-08 03:42 35.54236 -77.08259 37913 ft 398 kts 220°
2026-05-08 03:43 35.49254 -77.11318 37994 ft 402 kts 220°
2026-05-08 03:43 35.44275 -77.14351 37992 ft 402 kts 220°
2026-05-08 03:44 35.39266 -77.17395 37981 ft 402 kts 220°
2026-05-08 03:44 35.34263 -77.20443 37973 ft 402 kts 220°
2026-05-08 03:45 35.29255 -77.23487 37995 ft 402 kts 220°
2026-05-08 03:45 35.24252 -77.26527 37995 ft 401 kts 220°
2026-05-08 03:46 35.19242 -77.29559 37982 ft 402 kts 220°
2026-05-08 03:46 35.14232 -77.32587 37985 ft 402 kts 220°
2026-05-08 03:47 35.09220 -77.35611 37987 ft 402 kts 220°
2026-05-08 03:47 35.04212 -77.38633 37943 ft 402 kts 219°
2026-05-08 03:48 34.99193 -77.41654 37964 ft 402 kts 219°
2026-05-08 03:48 34.94180 -77.44675 37977 ft 402 kts 219°
2026-05-08 03:49 34.89203 -77.47670 37988 ft 402 kts 219°
2026-05-08 03:49 34.84191 -77.50679 37944 ft 401 kts 219°
2026-05-08 03:50 34.79177 -77.53673 37995 ft 402 kts 219°
2026-05-08 03:50 34.74166 -77.56675 37999 ft 401 kts 219°
2026-05-08 03:51 34.69170 -77.59667 38006 ft 400 kts 219°
2026-05-08 03:51 34.64175 -77.62651 37994 ft 400 kts 219°
2026-05-08 03:52 34.59173 -77.65628 37917 ft 400 kts 219°
2026-05-08 03:52 34.53863 -77.68050 37918 ft 425 kts 206°
2026-05-08 03:53 34.48066 -77.69522 37925 ft 426 kts 206°
2026-05-08 03:53 34.42272 -77.70981 37921 ft 425 kts 206°
2026-05-08 03:54 34.36483 -77.72447 37868 ft 425 kts 206°
2026-05-08 03:54 34.30660 -77.73933 37919 ft 428 kts 206°
2026-05-08 03:55 34.24834 -77.75413 37924 ft 428 kts 206°
2026-05-08 03:55 34.19033 -77.76886 37927 ft 428 kts 206°
2026-05-08 03:56 34.13192 -77.78364 37930 ft 428 kts 206°
2026-05-08 03:56 34.10312 -77.79076 37911 ft 416 kts 206°
2026-05-08 03:56 34.07516 -77.79754 37930 ft 403 kts 207°
2026-05-08 03:56 34.04814 -77.80411 37925 ft 390 kts 207°
2026-05-08 03:57 34.02196 -77.81058 37929 ft 377 kts 208°
2026-05-08 03:57 33.99668 -77.81689 37940 ft 365 kts 208°
2026-05-08 03:57 33.97226 -77.82304 37946 ft 352 kts 209°
2026-05-08 03:57 33.94869 -77.82902 37947 ft 341 kts 210°
2026-05-08 03:58 33.92586 -77.83484 37948 ft 330 kts 210°
2026-05-08 03:58 33.88158 -77.84626 37950 ft 323 kts 211°
2026-05-08 03:59 33.83795 -77.85752 37945 ft 323 kts 210°
2026-05-08 03:59 33.79409 -77.86868 37943 ft 323 kts 210°
2026-05-08 04:00 33.75111 -77.88194 37939 ft 316 kts 214°
2026-05-08 04:00 33.70902 -77.89680 37925 ft 315 kts 214°
2026-05-08 04:01 33.66697 -77.91157 37924 ft 315 kts 214°
2026-05-08 04:01 33.63183 -77.92364 37923 ft 316 kts 214°
2026-05-08 04:02 33.58940 -77.93807 37905 ft 318 kts 213°
2026-05-08 04:02 33.53983 -77.95484 37915 ft 318 kts 213°
2026-05-08 04:03 33.50415 -77.96689 37922 ft 318 kts 213°
2026-05-08 04:03 33.44038 -77.98844 37921 ft 317 kts 213°
2026-05-08 04:04 33.39815 -78.00262 37925 ft 317 kts 213°
2026-05-08 04:04 33.35568 -78.01689 37885 ft 317 kts 213°
2026-05-08 04:05 33.31317 -78.03119 37899 ft 317 kts 213°
2026-05-08 04:05 33.27068 -78.04551 37905 ft 317 kts 213°
2026-05-08 04:06 33.22807 -78.05991 37926 ft 322 kts 213°
2026-05-08 04:06 33.18362 -78.07522 37930 ft 344 kts 212°
2026-05-08 04:07 33.16018 -78.08324 37936 ft 356 kts 211°
2026-05-08 04:07 33.13593 -78.09145 37929 ft 369 kts 211°
2026-05-08 04:07 33.11081 -78.09985 37890 ft 380 kts 210°
2026-05-08 04:07 33.08497 -78.10842 37939 ft 390 kts 210°
2026-05-08 04:08 33.05848 -78.11723 37942 ft 401 kts 210°
2026-05-08 04:08 33.03129 -78.12632 37942 ft 411 kts 209°
2026-05-08 04:08 32.97506 -78.14507 37942 ft 425 kts 208°
2026-05-08 04:09 32.91777 -78.16390 37942 ft 428 kts 208°
2026-05-08 04:09 32.86034 -78.18287 37945 ft 428 kts 208°
2026-05-08 04:10 32.80293 -78.20194 37947 ft 428 kts 209°
2026-05-08 04:10 32.74600 -78.22096 37948 ft 428 kts 209°
2026-05-08 04:11 32.68813 -78.24015 37953 ft 429 kts 208°
2026-05-08 04:11 32.63108 -78.25900 37956 ft 429 kts 208°
2026-05-08 04:12 32.57362 -78.27798 37932 ft 429 kts 208°
2026-05-08 04:12 32.51601 -78.29712 37944 ft 430 kts 208°
2026-05-08 04:13 32.45839 -78.31611 37950 ft 430 kts 208°
2026-05-08 04:13 32.40074 -78.33511 37954 ft 430 kts 208°
2026-05-08 04:14 32.34307 -78.35407 37910 ft 430 kts 207°
2026-05-08 04:14 32.28548 -78.37298 37938 ft 430 kts 208°
2026-05-08 04:15 32.22784 -78.39186 37949 ft 430 kts 207°
2026-05-08 04:15 32.17025 -78.41069 37964 ft 429 kts 208°
2026-05-08 04:16 32.11270 -78.42958 37965 ft 429 kts 208°
2026-05-08 04:16 32.05508 -78.44841 37953 ft 431 kts 207°
2026-05-08 04:17 31.99761 -78.46730 37965 ft 432 kts 207°
2026-05-08 04:17 31.93974 -78.48619 37969 ft 431 kts 207°
2026-05-08 04:18 31.88193 -78.50500 37973 ft 431 kts 207°
2026-05-08 04:18 31.82402 -78.52377 37945 ft 431 kts 206°
2026-05-08 04:19 31.76615 -78.54253 37952 ft 432 kts 206°
2026-05-08 04:19 31.70818 -78.56134 37957 ft 432 kts 206°
2026-05-08 04:20 31.65014 -78.58011 37967 ft 433 kts 206°
2026-05-08 04:20 31.59213 -78.59895 37968 ft 433 kts 206°
2026-05-08 04:21 31.53396 -78.61781 37968 ft 436 kts 206°
2026-05-08 04:21 31.47565 -78.63761 37974 ft 436 kts 206°
2026-05-08 04:22 31.41786 -78.65767 37974 ft 436 kts 207°
2026-05-08 04:22 31.35962 -78.67781 37979 ft 436 kts 206°
2026-05-08 04:23 31.30127 -78.69771 37986 ft 437 kts 206°
2026-05-08 04:23 31.24294 -78.71753 37962 ft 437 kts 206°
2026-05-08 04:24 31.18446 -78.73747 37968 ft 438 kts 206°
2026-05-08 04:24 31.12600 -78.75736 37973 ft 438 kts 206°
2026-05-08 04:25 31.06734 -78.77729 37979 ft 438 kts 206°
2026-05-08 04:25 31.00873 -78.79723 37967 ft 440 kts 206°
2026-05-08 04:26 30.94976 -78.81722 37977 ft 442 kts 206°
2026-05-08 04:26 30.89082 -78.83722 37981 ft 442 kts 206°
2026-05-08 04:27 30.83165 -78.85721 37984 ft 442 kts 206°
2026-05-08 04:27 30.77254 -78.87714 37986 ft 442 kts 206°
2026-05-08 04:28 30.71343 -78.89707 37959 ft 443 kts 206°
2026-05-08 04:28 30.65450 -78.91694 37969 ft 444 kts 205°
2026-05-08 04:29 30.59500 -78.93699 37975 ft 445 kts 205°
2026-05-08 04:29 30.53543 -78.95697 37980 ft 446 kts 205°
2026-05-08 04:30 30.47579 -78.97696 37970 ft 446 kts 205°
2026-05-08 04:30 30.41621 -78.99717 37975 ft 446 kts 206°
2026-05-08 04:31 30.35806 -79.02098 37976 ft 441 kts 210°
2026-05-08 04:31 30.30103 -79.04719 37982 ft 441 kts 211°
2026-05-08 04:32 30.24379 -79.07314 38003 ft 442 kts 210°
2026-05-08 04:32 30.18625 -79.09833 38006 ft 442 kts 210°
2026-05-08 04:33 30.12860 -79.12320 38003 ft 442 kts 210°
2026-05-08 04:33 30.07090 -79.14803 38003 ft 442 kts 210°
2026-05-08 04:34 30.01330 -79.17301 38009 ft 442 kts 210°
2026-05-08 04:34 29.95617 -79.19785 38010 ft 442 kts 210°
2026-05-08 04:35 29.89857 -79.22284 37979 ft 443 kts 209°
2026-05-08 04:35 29.84087 -79.24782 37987 ft 444 kts 209°
2026-05-08 04:36 29.78300 -79.27279 37993 ft 444 kts 209°
2026-05-08 04:36 29.72506 -79.29775 38003 ft 445 kts 209°
2026-05-08 04:37 29.66707 -79.32266 37981 ft 445 kts 208°
2026-05-08 04:37 29.60909 -79.34758 37984 ft 446 kts 208°
2026-05-08 04:38 29.55097 -79.37254 37990 ft 446 kts 208°
2026-05-08 04:38 29.49284 -79.39753 38000 ft 446 kts 208°
2026-05-08 04:39 29.43470 -79.42246 38006 ft 446 kts 208°
2026-05-08 04:39 29.37655 -79.44747 37999 ft 446 kts 208°
2026-05-08 04:40 29.31879 -79.47217 38008 ft 446 kts 208°
2026-05-08 04:40 29.26026 -79.49715 38018 ft 446 kts 208°
2026-05-08 04:41 29.20250 -79.52175 38018 ft 446 kts 208°
2026-05-08 04:41 29.14435 -79.54651 38020 ft 446 kts 208°
2026-05-08 04:42 29.08709 -79.57296 37985 ft 438 kts 216°
2026-05-08 04:42 29.03511 -79.60871 37997 ft 436 kts 218°
2026-05-08 04:43 28.98318 -79.64470 38000 ft 437 kts 218°
2026-05-08 04:43 28.93122 -79.68067 38005 ft 437 kts 218°
2026-05-08 04:44 28.87920 -79.71658 38012 ft 437 kts 218°
2026-05-08 04:44 28.82718 -79.75245 37984 ft 437 kts 217°
2026-05-08 04:45 28.77502 -79.78840 37995 ft 438 kts 217°
2026-05-08 04:45 28.72280 -79.82431 38014 ft 439 kts 218°
2026-05-08 04:46 28.67050 -79.86019 38019 ft 439 kts 218°
2026-05-08 04:46 28.61829 -79.89599 38025 ft 438 kts 218°
2026-05-08 04:47 28.56602 -79.93189 37994 ft 439 kts 217°
2026-05-08 04:47 28.51373 -79.96780 38009 ft 440 kts 217°
2026-05-08 04:48 28.46135 -80.00372 38012 ft 440 kts 217°
2026-05-08 04:48 28.40879 -80.03959 38005 ft 441 kts 217°
2026-05-08 04:49 28.35676 -80.07508 38008 ft 441 kts 217°
2026-05-08 04:49 28.30412 -80.11090 37988 ft 441 kts 217°
2026-05-08 04:50 28.25142 -80.14677 37992 ft 442 kts 217°
2026-05-08 04:50 28.19863 -80.18276 37993 ft 443 kts 217°
2026-05-08 04:51 28.14574 -80.21868 38005 ft 443 kts 217°
2026-05-08 04:51 28.09275 -80.25458 38010 ft 444 kts 217°
2026-05-08 04:52 28.03974 -80.29036 38020 ft 444 kts 217°
2026-05-08 04:52 27.98666 -80.32626 37995 ft 444 kts 216°
2026-05-08 04:53 27.93364 -80.36225 38006 ft 445 kts 216°
2026-05-08 04:53 27.88082 -80.39800 38015 ft 446 kts 216°
2026-05-08 04:54 27.82754 -80.43390 38022 ft 446 kts 216°
2026-05-08 04:54 27.77424 -80.46971 38026 ft 446 kts 216°
2026-05-08 04:55 27.71770 -80.49923 38003 ft 458 kts 199°
2026-05-08 04:55 27.65360 -80.50716 38012 ft 466 kts 189°
2026-05-08 04:56 27.59984 -80.51132 38016 ft 466 kts 189°
2026-05-08 04:56 27.53512 -80.51633 38026 ft 467 kts 189°
2026-05-08 04:57 27.47028 -80.52141 38030 ft 467 kts 189°
2026-05-08 04:57 27.40546 -80.52652 38013 ft 467 kts 189°
2026-05-08 04:58 27.34049 -80.53164 38026 ft 468 kts 189°
2026-05-08 04:58 27.27559 -80.53679 38030 ft 468 kts 189°
2026-05-08 04:59 27.21066 -80.54201 38039 ft 468 kts 190°
2026-05-08 04:59 27.14573 -80.54716 38015 ft 468 kts 189°
2026-05-08 05:00 27.08080 -80.55220 38017 ft 468 kts 189°
2026-05-08 05:00 27.01583 -80.55729 38024 ft 468 kts 189°
2026-05-08 05:01 26.95082 -80.56235 38027 ft 468 kts 189°
2026-05-08 05:01 26.88585 -80.56741 38029 ft 468 kts 189°
2026-05-08 05:02 26.82091 -80.57249 38003 ft 468 kts 189°
2026-05-08 05:02 26.75592 -80.57761 38021 ft 469 kts 189°
2026-05-08 05:03 26.69124 -80.58262 38031 ft 469 kts 189°
2026-05-08 05:03 26.62618 -80.58765 38036 ft 469 kts 189°
2026-05-08 05:04 26.56111 -80.59267 38040 ft 469 kts 189°
2026-05-08 05:04 26.49600 -80.59777 38021 ft 469 kts 189°
2026-05-08 05:05 26.43093 -80.60287 38024 ft 469 kts 189°
2026-05-08 05:05 26.36582 -80.60793 38026 ft 469 kts 189°
2026-05-08 05:06 26.30069 -80.61297 38037 ft 469 kts 189°
2026-05-08 05:06 26.23548 -80.61801 38024 ft 470 kts 189°
2026-05-08 05:07 26.17021 -80.62296 37709 ft 470 kts 189°
2026-05-08 05:07 26.13798 -80.62534 37449 ft 471 kts 188°
2026-05-08 05:07 26.10524 -80.62772 37190 ft 472 kts 188°
2026-05-08 05:08 26.07247 -80.63011 36944 ft 472 kts 189°
2026-05-08 05:08 26.03967 -80.63255 36699 ft 473 kts 189°
2026-05-08 05:08 26.00683 -80.63502 36428 ft 474 kts 189°
2026-05-08 05:08 25.97394 -80.63751 35954 ft 474 kts 189°
2026-05-08 05:09 25.94099 -80.64001 35410 ft 475 kts 188°
2026-05-08 05:09 25.90784 -80.64253 34885 ft 478 kts 188°
2026-05-08 05:09 25.87464 -80.64505 34309 ft 480 kts 188°
2026-05-08 05:09 25.84127 -80.64756 33691 ft 482 kts 188°
2026-05-08 05:10 25.80776 -80.65004 33107 ft 483 kts 188°
2026-05-08 05:10 25.74042 -80.65497 31951 ft 486 kts 188°
2026-05-08 05:10 25.70661 -80.65742 31381 ft 488 kts 188°
2026-05-08 05:11 25.67270 -80.65991 30808 ft 489 kts 188°
2026-05-08 05:11 25.63870 -80.66243 30250 ft 491 kts 188°
2026-05-08 05:11 25.60457 -80.66498 29643 ft 493 kts 188°
2026-05-08 05:11 25.57035 -80.66754 29127 ft 494 kts 188°
2026-05-08 05:12 25.53590 -80.67010 28587 ft 496 kts 188°
2026-05-08 05:12 25.50194 -80.67259 28071 ft 497 kts 188°
2026-05-08 05:12 25.46736 -80.67512 27532 ft 498 kts 188°
2026-05-08 05:12 25.43271 -80.67767 26986 ft 500 kts 188°
2026-05-08 05:13 25.39752 -80.68041 26413 ft 500 kts 189°
2026-05-08 05:13 25.36361 -80.68766 25844 ft 495 kts 198°
2026-05-08 05:13 25.33067 -80.69689 25242 ft 495 kts 198°
2026-05-08 05:13 25.29735 -80.70626 24646 ft 493 kts 198°
2026-05-08 05:14 25.26424 -80.71557 24022 ft 490 kts 198°
2026-05-08 05:14 25.23129 -80.72481 23339 ft 487 kts 198°
2026-05-08 05:14 25.19857 -80.73392 22709 ft 479 kts 198°
2026-05-08 05:14 25.16705 -80.74262 22468 ft 454 kts 198°
2026-05-08 05:15 25.13728 -80.75083 22332 ft 426 kts 198°
2026-05-08 05:15 25.10964 -80.75902 22201 ft 397 kts 204°
2026-05-08 05:15 25.08661 -80.77319 22036 ft 365 kts 224°
2026-05-08 05:15 25.07095 -80.79368 21869 ft 340 kts 244°
2026-05-08 05:16 25.06342 -80.81767 21298 ft 328 kts 265°
2026-05-08 05:16 25.06500 -80.84239 20659 ft 322 kts 287°
2026-05-08 05:16 25.07554 -80.86388 20184 ft 321 kts 311°
2026-05-08 05:16 25.09360 -80.87864 20043 ft 328 kts 334°
2026-05-08 05:17 25.11592 -80.88417 20048 ft 336 kts 356°
2026-05-08 05:17 25.13906 -80.87957 20051 ft 344 kts 19°
2026-05-08 05:17 25.15935 -80.86530 20052 ft 352 kts 41°
2026-05-08 05:17 25.17345 -80.84384 20050 ft 359 kts 62°
2026-05-08 05:18 25.17990 -80.81645 20050 ft 365 kts 85°
2026-05-08 05:18 25.17736 -80.78862 20049 ft 382 kts 105°
2026-05-08 05:18 25.16569 -80.76137 20052 ft 407 kts 126°
2026-05-08 05:18 25.14481 -80.73931 20052 ft 428 kts 149°
2026-05-08 05:19 25.11683 -80.72685 19989 ft 445 kts 170°
2026-05-08 05:19 25.08549 -80.72503 19140 ft 455 kts 190°
2026-05-08 05:19 25.05583 -80.73632 18644 ft 452 kts 212°
2026-05-08 05:19 25.03020 -80.75621 18180 ft 451 kts 222°
2026-05-08 05:20 25.00727 -80.77973 17635 ft 449 kts 227°
2026-05-08 05:20 24.98587 -80.80454 17132 ft 445 kts 229°
2026-05-08 05:20 24.96471 -80.82932 16658 ft 442 kts 227°
2026-05-08 05:20 24.94307 -80.85327 16174 ft 440 kts 225°
2026-05-08 05:21 24.92081 -80.87621 15704 ft 437 kts 223°
2026-05-08 05:21 24.89811 -80.89827 15225 ft 433 kts 221°
2026-05-08 05:21 24.87531 -80.91972 14769 ft 430 kts 220°
2026-05-08 05:21 24.85259 -80.94092 14307 ft 426 kts 220°
2026-05-08 05:22 24.83015 -80.96201 13846 ft 423 kts 220°
2026-05-08 05:22 24.80797 -80.98312 13352 ft 420 kts 220°
2026-05-08 05:22 24.78602 -81.00419 12899 ft 418 kts 221°
2026-05-08 05:22 24.76595 -81.02715 12446 ft 416 kts 233°
2026-05-08 05:23 24.75042 -81.05393 11871 ft 414 kts 238°
2026-05-08 05:23 24.73691 -81.08183 11562 ft 414 kts 244°
2026-05-08 05:23 24.72451 -81.11045 11328 ft 414 kts 244°
2026-05-08 05:23 24.71228 -81.13911 11095 ft 414 kts 244°
2026-05-08 05:24 24.70021 -81.16758 10858 ft 405 kts 244°
2026-05-08 05:24 24.68869 -81.19484 10626 ft 379 kts 244°
2026-05-08 05:24 24.67793 -81.22023 10401 ft 353 kts 244°
2026-05-08 05:24 24.66789 -81.24389 10171 ft 330 kts 244°
2026-05-08 05:25 24.65845 -81.26604 9944 ft 312 kts 244°
2026-05-08 05:25 24.64945 -81.28707 9823 ft 306 kts 244°
2026-05-08 05:25 24.64043 -81.30812 9696 ft 304 kts 244°
2026-05-08 05:25 24.63151 -81.32895 9316 ft 299 kts 244°
2026-05-08 05:26 24.62271 -81.34949 8783 ft 295 kts 243°
2026-05-08 05:26 24.61087 -81.36753 8258 ft 290 kts 225°
2026-05-08 05:26 24.59703 -81.38347 7721 ft 287 kts 232°
2026-05-08 05:26 24.58773 -81.40257 7230 ft 283 kts 247°
2026-05-08 05:27 24.58003 -81.42232 7019 ft 281 kts 247°
2026-05-08 05:27 24.57235 -81.44196 6981 ft 280 kts 246°
2026-05-08 05:27 24.56118 -81.45932 6984 ft 281 kts 221°
2026-05-08 05:27 24.54425 -81.46985 6989 ft 282 kts 203°
2026-05-08 05:28 24.52653 -81.47876 6739 ft 278 kts 212°
2026-05-08 05:28 24.51295 -81.49347 6360 ft 275 kts 239°
2026-05-08 05:28 24.50578 -81.51272 6028 ft 270 kts 252°
2026-05-08 05:28 24.50034 -81.53190 5981 ft 255 kts 253°
2026-05-08 05:29 24.49530 -81.54994 5991 ft 238 kts 253°
2026-05-08 05:29 24.49077 -81.56628 6005 ft 218 kts 253°
2026-05-08 05:29 24.48662 -81.58178 6029 ft 200 kts 257°
2026-05-08 05:29 24.48402 -81.59597 6006 ft 179 kts 259°
2026-05-08 05:30 24.48188 -81.60863 6002 ft 159 kts 260°
2026-05-08 05:30 24.48000 -81.61994 5998 ft 142 kts 260°
2026-05-08 05:30 24.47830 -81.63018 6001 ft 133 kts 260°
2026-05-08 05:30 24.47663 -81.64013 6007 ft 132 kts 260°
2026-05-08 05:31 24.47501 -81.64987 5829 ft 130 kts 260°
2026-05-08 05:31 24.47335 -81.65981 5544 ft 134 kts 260°
2026-05-08 05:31 24.47170 -81.66971 5343 ft 126 kts 260°
2026-05-08 05:31 24.47015 -81.67897 5021 ft 122 kts 260°
2026-05-08 05:32 24.46862 -81.68809 4658 ft 121 kts 260°
2026-05-08 05:32 24.46712 -81.69719 4278 ft 121 kts 261°
2026-05-08 05:32 24.46819 -81.70650 3818 ft 126 kts 290°
2026-05-08 05:32 24.47076 -81.71524 3524 ft 118 kts 290°
2026-05-08 05:33 24.47377 -81.72377 3119 ft 119 kts 285°
2026-05-08 05:33 24.47278 -81.73290 2622 ft 125 kts 256°
2026-05-08 05:33 24.47071 -81.74181 2587 ft 118 kts 256°
2026-05-08 05:33 24.46867 -81.75065 2874 ft 123 kts 257°
2026-05-08 05:34 24.46665 -81.75954 2923 ft 117 kts 258°
2026-05-08 05:34 24.46848 -81.76802 2438 ft 121 kts 311°
2026-05-08 05:34 24.47509 -81.77338 2102 ft 117 kts 328°
2026-05-08 05:34 24.48201 -81.77845 1699 ft 120 kts 328°
2026-05-08 05:35 24.48909 -81.78329 1340 ft 120 kts 333°
2026-05-08 05:35 24.49677 -81.78673 1000 ft 118 kts 346°
2026-05-08 05:35 24.50479 -81.78877 697 ft 118 kts 348°
2026-05-08 05:35 24.51275 -81.79132 428 ft 118 kts 343°
2026-05-08 05:36 24.52054 -81.79378 258 ft 115 kts 347°
2026-05-08 05:36 24.52849 -81.79483 272 ft 113 kts 358°
2026-05-08 05:36 24.53619 -81.79251 398 ft 121 kts 37°
2026-05-08 05:36 24.54268 -81.78675 327 ft 118 kts 39°
2026-05-08 05:37 24.54908 -81.78120 265 ft 117 kts 42°
2026-05-08 05:37 24.55404 -81.77425 155 ft 116 kts 64°
2026-05-08 05:37 24.55599 -81.76566 32 ft 116 kts 88°
2026-05-08 05:37 24.55611 -81.75726 103 ft 119 kts 89°
2026-05-08 05:38 24.55789 -81.74842 886 ft 130 kts 46°
2026-05-08 05:38 24.56699 -81.74832 1662 ft 157 kts 322°
2026-05-08 05:38 24.57134 -81.75923 2269 ft 169 kts 280°
2026-05-08 05:38 24.57278 -81.77103 2448 ft 141 kts 278°
2026-05-08 05:39 24.57370 -81.78151 2059 ft 140 kts 275°
2026-05-08 05:39 24.57150 -81.79158 1630 ft 136 kts 225°
2026-05-08 05:39 24.56287 -81.79372 1173 ft 129 kts 165°
2026-05-08 05:39 24.55621 -81.78825 806 ft 120 kts 116°
2026-05-08 05:40 24.55601 -81.77904 397 ft 123 kts 90°
2026-05-08 05:40 24.55601 -81.76949 127 ft 124 kts 91°
2026-05-08 05:40 24.55612 -81.76085 11 ft 93 kts 89°
2026-05-08 05:40 24.55616 -81.75697 14 ft 22 kts 91°
2026-05-08 05:41 24.55565 -81.75586 15 ft 18 kts 186°
2026-05-08 05:41 24.55485 -81.75552 13 ft 12 kts 99°
2026-05-08 05:41 24.55474 -81.75502 12 ft 3 kts 148°
2026-05-08 05:41 24.55441 -81.75502 12 ft 2 kts 179°
2026-05-08 05:42 24.55440 -81.75502 12 ft 0 kts 179°